Regional Weather Roundup
Issued by NWS

Home | Current Version | Previous Version | Graphics & Text | Print | Product List | Glossary On
Versions: 1 2 3 4 5 6 7 8 9 10 11 12 13 14 15 16 17 18 19 20 21 22 23 24 25 26 27 28 29 30 31 32 33 34 35 36 37 38 39 40 41 42 43 44 45 46 47 48 49 50
000
ASUS43 KLMK 301010
RWRKY
KENTUCKY REGIONAL WEATHER ROUNDUP
NATIONAL WEATHER SERVICE LOUISVILLE KY
600 AM EDT MON MAY 30 2016

NOTE "FAIR" INDICATES FEW OR NO CLOUDS BELOW 12,000 FEET
WITH NO SIGNIFICANT WEATHER AND/OR OBSTRUCTIONS TO VISIBILITY.

KYZ001>023-026-027-061>063-070>075-301100-
WESTERN AND SOUTH CENTRAL KENTUCKY

CITY           SKY/WX    TMP DP  RH WIND       PRES   REMARKS
PADUCAH        CLEAR     62  59  90 CALM      30.04R
HENDERSON      CLEAR     63  59  88 CALM      30.04R
OWENSBORO      CLEAR     65  65 100 CALM      30.05S FOG
HOPKINSVILLE   CLEAR     67  63  88 N2        30.04S
BOWLING GREEN  MOCLDY    67  63  87 CALM      30.04S
GLASGOW        PTCLDY    64  64 100 CALM      30.04S FOG
$$

KYZ024-025-028>034-038-045-046-053-301100-
NORTH CENTRAL KENTUCKY

CITY           SKY/WX    TMP DP  RH WIND       PRES   REMARKS
LOUISVILLE/SDF MOCLDY    68  60  75 W3        30.03R
LOUISVILLE/LOU CLEAR     66  61  84 CALM      30.04R
FORT KNOX      CLEAR     61  60  97 VRB1      30.03S
$$

KYZ035>037-039>044-047>052-055>060-089>105-301100-
NORTHEAST KENTUCKY

CITY           SKY/WX    TMP DP  RH WIND       PRES   REMARKS
LEXINGTON      CLOUDY    64  62  93 W3        30.05R FOG
COVINGTON      MOCLDY    66  64  93 CALM      30.04R
FRANKFORT      MOCLDY    64  61  90 CALM      30.03R
$$

KYZ054-064>069-076>088-106>120-301100-
SOUTHEAST KENTUCKY

CITY           SKY/WX    TMP DP  RH WIND       PRES   REMARKS
JACKSON        MOCLDY    64  61  90 E5        30.04F FOG
LONDON         CLOUDY    66  63  90 CALM      30.07R
SOMERSET       CLOUDY    64  64 100 CALM      30.07R
MIDDLESBORO    FOG       60  60 100 CALM      30.08S VSB 1/2
MONTICELLO     MOSUNNY   64  64 100 NE8       30.07S FOG
$$





USA.gov is the U.S. government's official web portal to all federal, state and local government web resources and services.